Theta_e
337 337 337 337 335 332 329 327 328 332 335 334 334 333 332 330 330 329 330 333 334 334 334 334 334 334 331 328 326 324 326 326 326 326 326 328 328 328 326 324 324 325 324
336 336 338 337 337 332 329 326 327 332 333 333 331 334 334 331 329 328 328 327 332 332 332 332 333 332 328 324 322 323 322 322 322 323 323 323 326 328 325 322 329 329 327
336 336 336 337 336 332 330 326 325 329 333 332 332 334 334 332 329 326 326 328 332 333 331 331 329 330 327 324 322 321 321 321 321 322 322 322 324 325 325 324 326 327 327
336 335 335 335 334 333 331 328 324 328 331 332 329 333 333 330 327 324 324 327 330 332 331 330 328 324 328 325 322 320 321 321 320 321 322 322 323 324 324 324 323 325 323
337 335 335 334 334 334 331 330 327 326 330 330 330 331 332 331 330 325 324 327 329 329 326 326 324 323 328 327 322 321 321 321 321 321 320 321 322 323 324 323 323 322 321
336 336 335 334 334 333 332 330 329 326 324 330 330 331 332 331 329 327 326 324 323 323 324 320 324 328 330 328 324 323 321 320 321 320 321 321 321 322 323 320 319 320 321
337 337 336 335 334 333 333 330 329 328 325 322 330 329 329 329 330 327 326 325 323 324 322 318 320 325 329 328 327 325 323 322 320 319 321 320 320 322 323 321 317 319 320
337 338 337 335 334 333 333 332 329 328 325 323 328 331 331 328 327 326 326 325 324 324 324 320 321 317 317 321 322 322 321 320 319 319 319 321 320 322 323 323 319 321 320
337 337 337 335 333 333 333 332 330 328 327 325 326 331 330 327 325 326 327 326 326 326 324 323 322 322 322 315 313 312 312 312 313 313 316 319 320 321 324 324 323 321 321
337 337 336 335 335 333 333 333 332 330 328 327 324 326 328 327 325 325 327 327 327 327 325 323 323 323 323 322 321 321 320 320 319 318 316 313 317 320 324 324 324 324 323
338 338 337 335 334 333 334 333 333 332 330 328 327 325 323 325 325 326 327 325 325 326 325 324 324 323 322 323 322 322 321 322 322 322 322 318 316 320 324 325 325 325 325
337 338 337 336 335 335 335 334 333 332 331 332 331 329 327 325 323 323 324 324 326 325 325 325 325 324 324 323 322 322 323 323 322 323 323 322 319 318 323 325 325 326 326
336 337 337 337 336 336 335 334 333 332 331 331 330 330 330 329 329 329 325 323 325 326 326 326 325 325 324 323 323 323 323 324 324 324 323 323 323 321 322 324 324 325 326
336 336 336 337 337 336 336 335 334 333 332 331 331 331 329 329 328 328 327 327 327 327 328 327 326 326 326 325 325 324 324 324 324 324 324 324 323 323 323 324 325 325 325
326 328 326 334 337 337 336 336 335 334 333 332 331 330 330 330 329 328 328 327 327 326 326 326 326 326 326 326 326 325 325 325 325 325 325 324 324 324 323 324 326 327 327
319 319 320 322 325 335 336 336 336 335 334 334 333 332 331 329 329 330 329 330 329 327 327 326 326 326 326 326 325 325 325 324 324 324 324 324 325 325 325 325 325 326 327
318 319 320 321 324 326 331 336 336 336 335 335 334 333 331 331 330 328 328 330 330 330 329 329 330 329 328 328 328 326 325 325 325 324 324 323 323 323 324 324 324 324 324
317 318 318 319 319 322 327 332 333 333 334 335 335 332 331 330 330 330 330 329 329 331 331 331 330 330 329 329 328 329 328 327 326 325 322 322 322 323 323 323 322 322 323
314 315 315 316 316 317 317 318 318 321 325 328 332 334 333 332 332 332 331 331 331 331 330 330 330 329 329 328 326 326 325 324 323 323 322 322 322 322 322 322 322 322 322
311 312 312 312 313 313 314 315 319 319 325 327 329 331 332 332 332 332 331 330 330 331 330 329 327 327 327 327 326 325 324 323 323 321 321 321 320 321 321 321 320 320 319
308 308 309 310 311 313 313 319 323 322 325 326 326 326 327 327 328 330 329 328 328 328 328 327 326 325 325 325 325 324 322 320 319 318 319 317 319 319 319 317 316 317 317
304 305 307 310 312 314 316 321 321 320 320 321 320 321 321 325 324 323 323 323 323 323 323 322 322 321 322 322 322 319 316 316 317 316 316 315 316 316 316 311 311 314 313
302 302 304 307 309 313 319 320 319 318 315 313 311 314 313 313 313 311 312 313 314 314 315 314 313 313 313 316 316 317 314 313 313 316 314 314 312 308 303 304 310 307 304
300 300 300 304 307 310 316 318 316 315 309 306 306 306 304 304 304 303 305 306 307 306 306 306 307 308 309 310 311 312 312 312 312 310 313 312 308 299 299 307 304 302 298
298 298 298 300 303 305 309 312 313 312 307 304 303 302 299 299 298 298 298 298 299 299 300 301 302 304 305 305 304 304 304 306 305 305 307 303 297 298 301 303 301 300 293
296 296 297 298 299 301 304 305 306 304 301 301 300 298 295 294 294 294 294 295 296 297 297 297 298 298 298 299 298 298 298 298 297 298 297 297 296 296 301 299 297 294 289
Wind_Speed
13 13 11 10 8 8 8 8 9 10 10 10 10 10 10 10 9 8 7 8 9 9 11 11 11 12 12 13 13 12 11 11 10 10 10 9 9 8 9 9 9 9 7
15 14 13 11 9 8 7 7 9 10 9 8 7 8 9 9 8 6 5 5 7 7 8 9 9 8 9 10 11 11 10 8 8 9 8 9 8 8 6 6 8 6 7
16 15 14 12 10 8 7 7 7 8 7 7 7 10 9 7 6 6 5 7 7 7 7 7 6 6 6 7 8 8 8 8 6 5 6 8 6 5 4 6 3 6 5
14 15 13 12 10 8 7 7 7 8 7 7 7 8 7 6 6 7 8 7 6 7 6 5 4 3 3 5 6 6 6 7 6 5 3 4 5 4 3 3 4 3 2
13 13 12 11 10 9 7 6 6 6 7 6 5 6 6 6 5 5 6 5 5 4 3 2 2 2 3 3 3 4 4 5 4 5 3 0 2 1 1 0 1 2 2
14 13 11 10 9 9 7 6 6 5 6 7 5 5 6 5 4 3 3 2 1 3 3 2 2 4 4 2 0 1 2 3 3 4 3 2 4 4 3 5 4 4 3
14 12 10 9 9 9 8 7 6 5 4 6 7 7 6 6 7 5 3 1 1 2 2 3 1 2 1 2 3 3 4 5 5 6 5 5 5 5 4 6 5 6 5
12 13 11 10 10 9 9 7 6 6 5 5 7 8 8 7 6 6 5 4 2 2 4 3 3 3 5 6 7 8 8 8 8 8 8 8 7 6 7 8 7 7 8
13 13 12 10 11 10 10 9 7 7 6 5 7 8 9 8 6 7 7 7 6 5 5 5 5 5 7 7 8 9 9 10 10 10 10 10 9 9 9 10 10 9 10
14 13 11 10 10 11 10 9 8 7 7 6 7 9 10 9 9 8 8 9 9 9 8 7 7 8 8 8 9 10 11 12 13 12 12 12 11 11 12 12 12 12 12
15 15 13 12 10 9 9 8 8 7 8 8 8 8 9 11 10 10 10 9 9 10 11 11 11 11 11 11 11 12 13 14 14 13 13 12 12 13 13 14 14 15 15
17 17 15 14 13 12 11 9 9 7 7 8 9 10 10 10 10 11 12 11 11 10 11 13 13 14 14 15 15 14 14 14 14 14 14 12 12 13 14 15 16 17 18
19 17 17 17 16 16 14 12 12 12 10 11 10 9 9 9 8 8 9 11 12 12 14 15 15 15 15 16 16 16 16 16 16 16 16 16 16 17 17 17 18 20 21
20 21 19 19 19 19 17 17 16 15 13 12 11 11 11 11 11 12 12 12 12 12 13 13 13 13 14 14 15 15 16 17 18 19 19 18 19 19 21 20 20 21 22
11 12 14 18 23 21 21 19 19 19 17 14 13 10 12 13 13 13 14 14 14 14 14 14 15 14 14 14 14 15 16 17 17 18 19 19 19 20 21 21 22 23 24
8 8 8 8 11 21 23 22 21 21 21 19 16 15 14 12 14 14 15 17 17 16 16 16 16 16 17 16 17 17 17 18 19 19 20 21 20 19 19 21 23 24 26
6 8 9 8 7 9 18 21 21 21 22 22 20 17 15 14 12 15 15 17 18 18 18 18 18 19 19 19 20 19 19 20 20 20 21 21 22 23 24 23 25 25 26
10 9 8 6 5 5 7 14 17 17 18 21 22 18 17 17 16 15 15 15 15 16 17 18 18 19 21 22 22 22 21 20 20 20 22 23 23 23 23 23 23 23 23
7 5 4 4 5 6 7 8 7 8 10 11 14 18 17 15 17 17 15 14 14 14 13 13 14 13 17 17 17 17 19 20 21 21 21 21 21 20 20 20 18 18 19
5 2 2 4 6 9 10 9 6 7 6 7 6 7 10 11 12 14 15 14 13 12 11 13 15 14 15 16 17 19 21 20 18 17 14 12 12 12 14 14 16 17 18
4 2 3 5 7 8 5 2 3 4 6 7 6 6 5 3 4 5 7 8 8 9 8 10 10 11 12 9 11 12 14 16 11 11 7 14 9 10 9 13 16 14 15
5 5 5 6 6 6 3 4 3 9 8 10 9 8 7 4 3 2 2 1 1 2 4 5 5 5 4 5 2 3 4 6 5 10 8 10 7 9 13 15 15 13 15
7 7 7 6 5 5 5 7 9 10 11 8 8 6 6 4 3 2 1 2 3 4 5 5 6 6 6 4 3 3 1 3 6 2 10 3 11 15 15 13 11 13 18
6 5 5 5 6 7 6 9 10 8 6 4 5 5 4 3 2 4 4 3 2 1 1 2 3 3 4 4 4 2 1 1 2 4 2 8 12 12 16 11 11 15 22
5 4 5 6 8 8 6 5 6 8 7 8 5 3 3 3 3 2 2 2 2 3 4 3 3 3 2 1 2 3 2 2 1 1 3 7 11 10 12 11 13 16 24
5 4 5 6 8 6 5 5 6 8 9 8 6 3 2 2 3 3 3 3 3 4 4 5 5 5 5 6 6 8 9 5 4 3 2 4 7 6 6 8 13 17 28
Wind_Direction
170 161 163 147 140 121 122 120 120 118 122 116 109 106 104 99 92 87 83 78 78 74 73 77 79 82 82 80 78 75 77 73 72 69 68 72 65 81 74 84 102 109 99
164 163 163 157 152 133 126 120 125 130 129 123 123 123 118 108 98 91 88 90 85 83 81 85 86 90 87 82 73 72 74 69 64 63 72 74 77 87 70 85 68 91 109
163 164 166 160 161 147 137 128 129 133 129 127 122 139 128 117 100 84 97 105 102 100 79 79 86 93 91 92 88 72 64 55 53 64 70 65 88 84 79 55 96 70 90
161 166 168 169 167 160 149 140 133 137 137 134 138 138 134 123 108 87 107 113 115 101 77 63 56 100 113 110 94 75 69 48 55 59 75 55 75 71 87 102 136 91 106
162 167 171 174 173 169 160 156 148 154 155 153 147 157 155 142 138 112 98 100 100 87 30 20 55 104 142 133 108 75 64 53 49 36 24 180 7 50 10 280 294 213 174
164 165 170 179 182 179 173 171 171 168 179 184 176 169 180 183 186 165 139 126 220 301 309 8 96 110 144 127 158 18 19 6 5 354 356 326 317 313 292 315 271 223 223
174 177 182 187 190 188 186 185 185 189 193 196 194 196 187 191 192 210 223 234 312 351 344 2 84 177 211 254 284 309 310 314 317 307 317 305 301 301 289 300 282 245 245
185 186 192 194 196 197 198 198 198 202 208 208 198 192 205 204 213 231 229 241 263 289 329 299 333 300 276 277 285 294 300 303 304 306 299 307 288 286 291 290 296 266 254
194 193 195 199 199 205 207 208 210 211 214 216 210 208 212 224 230 230 236 243 249 263 282 297 302 302 305 296 297 300 303 305 304 303 299 291 294 284 282 285 280 280 264
203 204 205 199 206 212 216 220 221 220 224 228 228 229 232 236 237 239 246 248 256 262 275 287 297 296 298 296 302 307 307 305 304 305 303 299 289 286 277 284 280 278 281
210 214 215 213 210 211 219 222 222 224 231 237 241 243 245 245 248 249 253 256 259 261 267 275 288 292 293 291 297 302 300 300 303 301 306 312 290 292 288 280 281 277 278
216 221 223 223 224 220 222 219 219 227 244 255 258 255 257 261 261 261 255 257 262 268 269 269 279 285 286 287 293 296 300 305 303 306 305 308 304 298 292 281 283 279 275
225 230 230 231 233 229 228 225 223 222 237 248 254 263 270 264 259 273 273 264 269 272 271 272 276 281 289 286 293 293 294 298 301 303 304 304 302 297 294 289 287 284 281
236 240 239 239 238 236 235 231 229 225 232 238 248 257 258 263 265 265 266 276 281 281 284 282 283 286 290 291 293 298 300 299 300 301 302 302 302 299 296 289 287 285 283
219 222 239 237 241 243 237 236 236 236 238 247 245 249 261 261 267 271 270 270 273 278 284 284 285 288 294 296 297 299 303 307 308 310 310 308 304 301 299 295 289 286 282
224 218 211 213 233 239 240 241 243 246 246 246 248 250 253 262 270 271 272 270 269 271 276 278 281 283 285 289 290 293 295 300 302 305 306 305 305 302 301 302 298 290 287
199 181 182 192 213 234 236 239 244 251 251 250 250 255 262 261 268 274 283 274 273 272 272 277 281 281 281 283 284 286 287 294 300 302 305 305 306 304 300 297 301 303 302
163 162 174 184 195 199 213 232 243 251 254 254 253 261 261 264 269 273 273 279 283 273 272 275 279 282 282 283 289 290 295 298 300 301 305 302 300 306 307 311 315 317 319
149 156 178 207 236 250 249 249 249 246 244 249 249 248 257 245 248 258 268 273 271 268 273 277 284 289 294 297 303 300 300 299 299 302 302 301 300 306 315 320 325 333 338
126 145 264 284 286 281 278 268 248 224 210 216 218 227 241 243 243 249 252 272 272 265 265 271 279 283 286 297 295 293 290 296 303 301 305 325 329 332 339 351 349 347 348
92 41 355 335 332 322 308 222 156 156 150 148 143 138 148 156 277 258 262 267 267 245 251 270 280 285 294 292 296 290 290 300 291 306 345 332 346 350 10 6 3 1 5
73 49 26 14 4 7 0 113 125 140 126 122 116 107 99 112 139 156 201 215 200 230 259 279 295 292 276 303 327 329 314 316 300 320 346 343 24 1 346 355 356 15 26
71 53 41 34 24 41 76 130 150 139 126 108 100 91 75 76 61 40 10 294 282 274 271 281 288 290 280 272 301 249 305 261 332 327 334 24 353 350 355 10 36 39 34
95 79 66 57 56 63 104 156 165 168 145 133 114 98 84 73 41 14 350 329 313 331 317 331 332 324 277 278 267 272 47 197 255 313 351 320 333 24 16 47 50 37 23
112 91 80 68 60 62 79 133 173 168 156 153 141 124 76 51 34 33 55 62 63 63 60 50 43 38 34 16 357 333 321 62 72 346 300 323 347 31 26 62 43 26 14
145 124 85 69 65 59 73 103 132 140 148 152 154 143 104 98 95 88 87 92 88 86 77 68 65 69 75 81 74 66 62 48 31 21 350 329 325 344 74 41 21 16 4